This is the latest recevied weather packets stored in our database for station/object SP3PDK-1. If no packets are shown the sender has not sent any weather packets the latest 10 day(s).
| Time | Temp. | Humidity | Pressure | Rain* | Wind** | Luminosity | Snow |
|---|---|---|---|---|---|---|---|
| 1777592657 | 12.22° C | 51% | 1027.7 hPa | - | - | - | - |
| 1777592054 | 12.78° C | 49% | 1027.5 hPa | - | - | - | - |
| 1777591453 | 12.78° C | 49% | 1027.7 hPa | - | - | - | - |
| 1777590858 | 13.33° C | 47% | 1027.6 hPa | - | - | - | - |
| 1777590258 | 13.33° C | 47% | 1027.6 hPa | - | - | - | - |
| 1777589658 | 13.89° C | 47% | 1027.5 hPa | - | - | - | - |
| 1777589054 | 13.89° C | 46% | 1027.5 hPa | - | - | - | - |
| 1777588454 | 14.44° C | 46% | 1027.5 hPa | - | - | - | - |
| 1777587854 | 14.44° C | 45% | 1027.5 hPa | - | - | - | - |
| 1777586654 | 15° C | 44% | 1027.6 hPa | - | - | - | - |
| 1777586054 | 15.56° C | 43% | 1027.6 hPa | - | - | - | - |
| 1777585454 | 15.56° C | 43% | 1027.6 hPa | - | - | - | - |
| 1777584854 | 15.56° C | 44% | 1027.6 hPa | - | - | - | - |
| 1777584259 | 16.11° C | 43% | 1027.6 hPa | - | - | - | - |
| 1777583654 | 15.56° C | 44% | 1027.5 hPa | - | - | - | - |
| 1777583059 | 16.11° C | 43% | 1027.6 hPa | - | - | - | - |
| 1777582458 | 15.56° C | 43% | 1027.6 hPa | - | - | - | - |
| 1777581254 | 16.67° C | 42% | 1027.6 hPa | - | - | - | - |
| 1777580654 | 16.67° C | 42% | 1027.7 hPa | - | - | - | - |
| 1777580054 | 16.11° C | 42% | 1027.9 hPa | - | - | - | - |
| 1777579454 | 16.11° C | 42% | 1027.8 hPa | - | - | - | - |
| 1777578854 | 16.11° C | 42% | 1027.9 hPa | - | - | - | - |
| 1777578259 | 16.11° C | 42% | 1027.8 hPa | - | - | - | - |
| 1777577654 | 16.11° C | 42% | 1027.7 hPa | - | - | - | - |
| 1777577058 | 16.11° C | 41% | 1027.7 hPa | - | - | - | - |
* Rain since midnight (hover to see other rain measurements)
** Current wind speed in m/s (hover to see current wind gust speed)